Flag for Canada Weather past 2 weeks in Iqaluit, Nunavut, Canada

3 °F

Snow flurries. Passing clouds.

Feels Like: -4 °F
Forecast: -5 / 11 °F
Wind: 3 mph from North

Location: Iqaluit

Current Time: Nov 25, 2015 at 7:29:45 PM

Latest Report: Nov 25, 2015 at 6:00 PM

Visibility: 15 mi

Pressure: 30.09 "Hg

Humidity: 78%

Dew point: -2 °F

Location of IqaluitLocation

Historic Weather in Iqaluit — Graph


Iqaluit temperature yesterday

Maximum temperature yesterday: -2 °F (at 12:00 PM)
Minimum temperature yesterday: -8 °F (at 10:00 PM)
Average temperature yesterday: -5 °F

Past Weeks' High & Low Weather Summary

High37 °F (Nov 20, 8:00 AM)100% (Nov 16, 7:00 PM)30.40 "Hg (Nov 16, 7:00 PM)
Low-8 °F (Nov 24, 10:00 PM)59% (Nov 24, 12:00 PM)29.31 "Hg (Nov 19, 3:00 PM)
Average16 °F81%29.95 "Hg
* Reported Nov 10 6:00 PM — Nov 25 6:00 PM, Iqaluit, Weather by CustomWeather, © 2015

Note: Actual official high and low records may vary slightly from our data, if they occured in-between our weather recording intervals... More about our weather records


Iqaluit weather history for previous 24 hours

Time TempWeatherWind HumidityBarometerVisibility
6:00 PM
Wed, Nov 25
3 °FSnow flurries. Passing clouds.3 mph78%30.09 "Hg15 mi
5:00 PM5 °FLight snow. Passing clouds.5 mph72%30.10 "Hg15 mi
4:00 PM3 °FPassing clouds.3 mph78%30.08 "Hg15 mi
3:00 PM5 °FPartly cloudy.7 mph72%30.06 "Hg30 mi
2:00 PM7 °FBroken clouds.10 mph72%30.04 "Hg30 mi
1:00 PM9 °FBroken clouds.24 mph66%30.01 "Hg25 mi
12:00 PM10 °FPartly sunny.10 mph72%30.00 "Hg25 mi
11:00 AM7 °FPartly sunny.9 mph78%29.98 "Hg25 mi
10:00 AM5 °FOvercast.6 mph78%29.98 "Hg20 mi
9:45 AM3 °FPartly sunny.7 mph78%29.97 "Hg15 mi
9:00 AM3 °FLight snow. Broken clouds.7 mph78%29.98 "Hg15 mi
8:00 AM1 °FLight snow. Partly cloudy.3 mph85%29.97 "Hg30 mi
7:00 AM1 °FLight snow. Mostly cloudy.3 mph78%29.99 "Hg10 mi
6:00 AM0 °FLight snow. Partly cloudy.5 mph78%29.99 "Hg15 mi
5:45 AM-2 °FLight snow. Partly cloudy.5 mph77%30.00 "Hg15 mi
5:00 AM-4 °FPartly cloudy.5 mph77%30.00 "Hg15 mi
4:00 AM-4 °FPassing clouds.3 mph77%30.00 "Hg15 mi
3:00 AM-2 °FPartly cloudy.6 mph77%30.00 "Hg15 mi
2:00 AM-8 °FPassing clouds.6 mph77%30.00 "Hg15 mi
1:00 AM-6 °FPassing clouds.6 mph70%29.99 "Hg15 mi
12:00 AM-6 °FPassing clouds.7 mph70%30.00 "Hg15 mi
11:00 PM
Tue, Nov 24
-6 °FPassing clouds.7 mph70%30.00 "Hg15 mi
10:00 PM-8 °FPassing clouds.9 mph77%30.00 "Hg15 mi
9:00 PM-6 °FPassing clouds.5 mph70%30.01 "Hg15 mi
8:00 PM-6 °FPassing clouds.10 mph70%30.01 "Hg15 mi
7:00 PM-6 °FPassing clouds.9 mph70%30.02 "Hg15 mi
Weather by CustomWeather, © 2015

See weather overviewHow to use our weather pages